Flag for U.S.A. Weather past 2 weeks in Kansas City, Missouri, U.S.A.

Now
75 °F

Sunny.


Feels Like: 77 °F
Forecast: 47 / 74 °F
Wind: 16 mph from South

Location: Kansas City Downtown Airport


UV Index: 5 (Moderate)

Visibility: 10 mi


Pressure: 30.12 "Hg

Humidity: 34%

Dew point: 45 °F

Location of Kansas CityLocation

Historic Weather in Kansas City

°F

Kansas City temperature yesterday

Maximum temperature yesterday: 69 °F (at 4:54 PM)
Minimum temperature yesterday: 38 °F (at 3:54 AM)
Average temperature yesterday: 55 °F

Past Weeks' High & Low Weather Summary

 TemperatureHumidityPressure
High84 °F (Apr 12, 3:54 PM)92% (Apr 5, 7:54 AM)30.33 "Hg (Apr 5, 7:54 AM)
Low32 °F (Apr 14, 8:54 AM)19% (Apr 11, 11:54 AM)29.44 "Hg (Apr 13, 5:59 PM)
Average54 °F51%29.97 "Hg
* Reported Apr 4 11:54 AM — Apr 19 11:54 AM, Kansas City, Weather by CustomWeather, © 2014

Note: Actual official high and low records may vary slightly from our data, if they occured in-between our weather recording intervals... More about our weather records

Advertising

Historic Weather Conditions — Data for Previous 24 hours

 ConditionsComfort  
Time TempWeatherWind HumidityBarometerVisibility
11:54 AM
Apr 19
74 °FSunny.14 mph36%30.13 "Hg10 mi
10:54 AM72 °FSunny.10 mph41%30.13 "Hg10 mi
9:54 AM68 °FSunny.12 mph44%30.14 "Hg10 mi
8:54 AM63 °FSunny.10 mph48%30.15 "Hg10 mi
7:54 AM57 °FSunny.9 mph55%30.15 "Hg10 mi
6:54 AM56 °FClear.8 mph55%30.14 "Hg10 mi
5:54 AM55 °FClear.6 mph55%30.13 "Hg10 mi
4:54 AM57 °FClear.7 mph51%30.13 "Hg10 mi
3:54 AM60 °FClear.9 mph46%30.13 "Hg10 mi
2:54 AM61 °FClear.15 mph44%30.13 "Hg10 mi
1:54 AM61 °FClear.10 mph44%30.15 "Hg10 mi
12:54 AM60 °FClear.12 mph49%30.16 "Hg10 mi
11:54 PM
Apr 18
60 °FClear.9 mph52%30.16 "Hg10 mi
10:54 PM61 °FClear.9 mph50%30.16 "Hg10 mi
9:54 PM62 °FClear.8 mph48%30.16 "Hg10 mi
8:54 PM63 °FSunny.7 mph45%30.15 "Hg10 mi
7:54 PM66 °FSunny.5 mph39%30.14 "Hg10 mi
6:54 PM68 °FSunny.7 mph36%30.15 "Hg10 mi
5:54 PM69 °FSunny.9 mph33%30.16 "Hg10 mi
4:54 PM69 °FSunny.8 mph35%30.18 "Hg10 mi
3:54 PM68 °FSunny.No wind36%30.20 "Hg10 mi
2:54 PM68 °FSunny.9 mph36%30.23 "Hg10 mi
1:54 PM66 °FSunny.7 mph39%30.25 "Hg10 mi
Weather by CustomWeather, © 2014

See weather overview